Weather History for Watonga, OK

Change the Weather History Date:

Sunday, February 12, 2012

  Actual Average Record
Temperature  
Mean Temperature 26 °F -  
Max Temperature 32 °F 52 °F 88 °F (1962)
Min Temperature 19 °F 26 °F 3 °F (1986)
Degree Days  
Heating Degree Days 40    
Moisture  
Dew Point 17 °F    
Average Humidity 73    
Maximum Humidity 100    
Minimum Humidity 55    
Precipitation  
Precipitation 0.00 in - - ()
Sea Level Pressure  
Sea Level Pressure 30.44 in    
Wind  
Wind Speed 7 mph (South)    
Max Wind Speed 18 mph    
Max Gust Speed 24 mph    
Visibility 10 miles    
Events Snow    
Averages and records for this station are not official NWS values.
T = Trace of Precipitation, MM = Missing Value Source: NWS Daily Summary

Daily Weather History Graph

Daily Weather History Graph

Search for Another Location

Airport:

Trip Planner

Search our weather history database for the weather conditions in past years. The results will help you decide how hot, cold, wet, or windy it might be!

Date:

Astronomy

Feb. 12, 2012 Rise Set
Actual Time 7:24 AM CST 6:11 PM CST
Civil Twilight 6:58 AM CST 6:38 PM CST
Nautical Twilight 6:28 AM CST 7:08 PM CST
Astronomical Twilight 5:58 AM CST 7:38 PM CST
Moon 11:57 PM CST (2/12) 9:57 AM CST (2/12)
Length of Visible Light 11h 40m
Length of Day
10h 47m
Waning Gibbous, 72% of the Moon is Illuminated
Feb 12
Waning Gibbous
Feb 14
Last Quarter
Feb 21
New
Feb 29
First Quarter
Mar 8
Full

Hourly Weather History & Observations

Time (CST) Temp. Windchill Dew Point Humidity Pressure Visibility Wind Dir Wind Speed Gust Speed Precip Events Conditions
12:15 AM 19.4 °F 10.4 °F 17.6 °F 93% 30.61 in 10.0 mi NE 6.9 mph - N/A   Clear
12:35 AM 19.4 °F 12.8 °F 17.6 °F 93% 30.61 in 10.0 mi NNE 4.6 mph - N/A   Clear
12:55 AM 19.4 °F - 17.6 °F 93% 30.61 in 10.0 mi Calm Calm - N/A   Clear
1:15 AM 19.4 °F 14.3 °F 17.6 °F 93% 30.62 in 10.0 mi North 3.5 mph - N/A   Clear
1:35 AM 19.4 °F - 17.6 °F 93% 30.62 in 10.0 mi Calm Calm - N/A   Clear
1:55 AM 19.4 °F 14.3 °F 17.6 °F 93% 30.62 in 10.0 mi NNE 3.5 mph - N/A   Clear
2:15 AM 19.4 °F 11.5 °F 17.6 °F 93% 30.61 in 10.0 mi NE 5.8 mph - N/A   Clear
2:35 AM 19.4 °F 12.8 °F 17.6 °F 93% 30.61 in 10.0 mi East 4.6 mph - N/A   Clear
2:55 AM 19.4 °F 12.8 °F 17.6 °F 93% 30.61 in 10.0 mi NE 4.6 mph - N/A   Clear
3:15 AM 19.4 °F 12.8 °F 17.6 °F 93% 30.61 in 10.0 mi ENE 4.6 mph - N/A   Clear
3:35 AM 19.4 °F - 15.8 °F 86% 30.61 in 10.0 mi Calm Calm - N/A   Clear
3:55 AM 19.4 °F - 17.6 °F 93% 30.60 in 10.0 mi Calm Calm - N/A   Scattered Clouds
4:15 AM 19.4 °F - 17.6 °F 93% 30.58 in 10.0 mi Calm Calm - N/A   Overcast
4:35 AM 21.2 °F 14.9 °F 17.6 °F 86% 30.57 in 10.0 mi ESE 4.6 mph - N/A   Overcast
4:55 AM 21.2 °F 13.6 °F 15.8 °F 80% 30.56 in 10.0 mi SE 5.8 mph - N/A   Overcast
5:15 AM 21.2 °F 13.6 °F 14.0 °F 74% 30.55 in 10.0 mi SE 5.8 mph - N/A   Scattered Clouds
5:35 AM 19.4 °F 14.3 °F 14.0 °F 80% 30.55 in 10.0 mi SSE 3.5 mph - N/A   Clear
5:55 AM 19.4 °F 14.3 °F 14.0 °F 80% 30.54 in 10.0 mi SE 3.5 mph - N/A   Clear
6:15 AM 19.4 °F 14.3 °F 14.0 °F 80% 30.54 in 10.0 mi SSE 3.5 mph - N/A   Clear
6:35 AM 19.4 °F 12.8 °F 14.0 °F 80% 30.53 in 10.0 mi SSE 4.6 mph - N/A   Clear
6:55 AM 19.4 °F 11.5 °F 14.0 °F 80% 30.53 in 10.0 mi SSE 5.8 mph - N/A   Mostly Cloudy
7:15 AM 21.2 °F 13.6 °F 14.0 °F 74% 30.52 in 10.0 mi SSE 5.8 mph - N/A   Overcast
7:35 AM 21.2 °F 12.6 °F 14.0 °F 74% 30.51 in 10.0 mi SSE 6.9 mph - N/A   Overcast
7:55 AM 21.2 °F 12.6 °F 14.0 °F 74% 30.51 in 10.0 mi SSE 6.9 mph - N/A   Mostly Cloudy
8:15 AM 21.2 °F 12.6 °F 14.0 °F 74% 30.51 in 10.0 mi South 6.9 mph - N/A   Overcast
8:35 AM 21.2 °F 13.6 °F 14.0 °F 74% 30.51 in 10.0 mi South 5.8 mph - N/A   Overcast
8:55 AM 23.0 °F 13.1 °F 14.0 °F 68% 30.51 in 10.0 mi SSE 9.2 mph - N/A   Overcast
9:15 AM 23.0 °F 13.1 °F 14.0 °F 68% 30.51 in 10.0 mi South 9.2 mph - N/A   Overcast
9:35 AM 23.0 °F 13.1 °F 14.0 °F 68% 30.51 in 10.0 mi South 9.2 mph - N/A   Overcast
9:55 AM 23.0 °F 11.7 °F 14.0 °F 68% 30.51 in 10.0 mi South 11.5 mph - N/A   Overcast
10:15 AM 23.0 °F 11.1 °F 12.2 °F 63% 30.51 in 10.0 mi South 12.7 mph 16.1 mph N/A   Overcast
10:35 AM 23.0 °F 12.4 °F 12.2 °F 63% 30.49 in 10.0 mi South 10.4 mph - N/A   Overcast
10:55 AM 23.0 °F 13.1 °F 12.2 °F 63% 30.49 in 10.0 mi South 9.2 mph - N/A   Overcast
11:15 AM 24.8 °F 15.3 °F 14.0 °F 64% 30.48 in 10.0 mi South 9.2 mph - N/A   Overcast
11:35 AM 26.6 °F 17.5 °F 14.0 °F 59% 30.47 in 10.0 mi SSW 9.2 mph - N/A   Overcast
11:55 AM 26.6 °F 18.2 °F 14.0 °F 59% 30.47 in 10.0 mi SSW 8.1 mph - N/A   Overcast
12:15 PM 26.6 °F 16.8 °F 14.0 °F 59% 30.45 in 10.0 mi South 10.4 mph - N/A   Overcast
12:35 PM 26.6 °F 17.5 °F 14.0 °F 59% 30.44 in 10.0 mi South 9.2 mph - N/A   Overcast
12:55 PM 28.4 °F 19.7 °F 14.0 °F 55% 30.43 in 10.0 mi SSW 9.2 mph - N/A   Overcast
1:15 PM 28.4 °F 18.5 °F 14.0 °F 55% 30.41 in 10.0 mi SW 11.5 mph - N/A   Overcast
1:35 PM 28.4 °F 19.7 °F 14.0 °F 55% 30.40 in 10.0 mi SSW 9.2 mph - N/A   Overcast
1:55 PM 28.4 °F 19.1 °F 15.8 °F 59% 30.37 in 10.0 mi SSW 10.4 mph - N/A   Overcast
2:15 PM 28.4 °F 17.5 °F 15.8 °F 59% 30.35 in 10.0 mi SSW 13.8 mph - N/A   Overcast
2:35 PM 30.2 °F 19.8 °F 15.8 °F 55% 30.33 in 10.0 mi SW 13.8 mph - N/A   Overcast
2:55 PM 30.2 °F 21.3 °F 17.6 °F 60% 30.32 in 10.0 mi SSW 10.4 mph - N/A   Overcast
3:15 PM 30.2 °F 21.3 °F 17.6 °F 60% 30.32 in 10.0 mi South 10.4 mph - N/A   Overcast
3:35 PM 30.2 °F 19.8 °F 17.6 °F 60% 30.30 in 10.0 mi SSW 13.8 mph 18.4 mph N/A   Overcast
3:55 PM 30.2 °F 19.3 °F 17.6 °F 60% 30.30 in 10.0 mi SSW 15.0 mph - N/A   Overcast
4:15 PM 30.2 °F 20.2 °F 17.6 °F 60% 30.29 in 10.0 mi SSW 12.7 mph 17.3 mph N/A   Overcast
4:35 PM 30.2 °F 20.2 °F 17.6 °F 60% 30.28 in 10.0 mi SW 12.7 mph 19.6 mph N/A   Overcast
4:55 PM 32.0 °F 23.0 °F 19.4 °F 60% 30.26 in 10.0 mi SSW 11.5 mph 17.3 mph N/A   Overcast
5:15 PM 32.0 °F 22.1 °F 19.4 °F 60% 30.25 in 10.0 mi SSW 13.8 mph 18.4 mph N/A   Overcast
5:35 PM 32.0 °F 24.2 °F 19.4 °F 60% 30.23 in 10.0 mi SSW 9.2 mph - N/A   Overcast
5:55 PM 32.0 °F 24.2 °F 19.4 °F 60% 30.21 in 10.0 mi South 9.2 mph - N/A   Overcast
6:15 PM 32.0 °F 22.5 °F 19.4 °F 60% 30.21 in 10.0 mi SSW 12.7 mph 19.6 mph N/A   Overcast
6:35 PM 32.0 °F 23.6 °F 21.2 °F 64% 30.21 in 10.0 mi SSW 10.4 mph 16.1 mph N/A   Overcast
6:55 PM 32.0 °F 24.2 °F 21.2 °F 64% 30.20 in 10.0 mi SSW 9.2 mph - N/A   Overcast
7:15 PM 30.2 °F 18.1 °F 24.8 °F 80% 30.20 in 4.0 mi SSW 18.4 mph 24.2 mph N/A Snow Light Snow
7:35 PM 30.2 °F 20.8 °F 26.6 °F 86% 30.20 in 10.0 mi SSW 11.5 mph 19.6 mph N/A Snow Light Snow
7:55 PM 32.0 °F 22.5 °F 24.8 °F 75% 30.18 in 7.0 mi SSW 12.7 mph 16.1 mph N/A Snow Light Snow
8:15 PM 30.2 °F 19.8 °F 26.6 °F 86% 30.18 in 3.0 mi SSW 13.8 mph 18.4 mph N/A Snow Light Snow
8:35 PM 30.2 °F 20.2 °F 30.2 °F 100% 30.17 in 1.5 mi South 12.7 mph - N/A Snow Light Snow
8:55 PM 30.2 °F 20.8 °F 30.2 °F 100% 30.16 in 1.5 mi South 11.5 mph 16.1 mph N/A Snow Light Snow
9:15 PM 30.2 °F 20.8 °F 30.2 °F 100% 30.15 in 1.2 mi South 11.5 mph 18.4 mph N/A Snow Light Snow
9:35 PM 30.2 °F 18.9 °F 30.2 °F 100% 30.14 in 0.8 mi South 16.1 mph - N/A Snow Snow
9:55 PM 30.2 °F 18.9 °F 30.2 °F 100% 30.14 in 1.0 mi SSW 16.1 mph 23.0 mph N/A Snow Snow
10:15 PM 30.2 °F 20.8 °F 30.2 °F 100% 30.13 in 0.5 mi SSW 11.5 mph 19.6 mph N/A Snow Snow
10:35 PM 30.2 °F 18.9 °F 30.2 °F 100% 30.13 in 1.0 mi SSW 16.1 mph 19.6 mph N/A Snow Snow
10:55 PM 30.2 °F 17.8 °F 30.2 °F 100% 30.12 in 1.2 mi SSW 19.6 mph 26.5 mph N/A Snow Light Snow
11:15 PM 30.2 °F 18.9 °F 30.2 °F 100% 30.11 in 1.2 mi SSW 16.1 mph 27.6 mph N/A Snow Light Snow
11:35 PM 30.2 °F 18.1 °F 30.2 °F 100% 30.10 in 1.5 mi SSW 18.4 mph 26.5 mph N/A Snow Light Snow
11:55 PM 30.2 °F 17.4 °F 30.2 °F 100% 30.08 in 1.8 mi SSW 20.7 mph 32.2 mph N/A Snow Light Snow